Seatac, Washington, United States
Lat: 47.45N, Lon: 122.32W
Wx Zone: WAZ508
Local Info
Past Weather Observations for Today

NOTE: This archive is for the closest National Weather Service station to Seatac. Information may differ from the station used for current weather conditions.

Click here for Long-term Archive

Time Weather Temperature Dewpoint Humidity Pressure Winds Precip Visibility
15:53
Partly Cloudy
55°F / 13°C 45°F / 7°C 67% 30.15 in
(1021 mb)
S 11.5 mph
(S 19 kph)
- 10SM
14:53
Partly Cloudy
55°F / 13°C 45°F / 7°C 67% 30.15 in
(1021 mb)
S 10.4 mph
(S 17 kph)
- 10SM
13:53
Partly Cloudy
55°F / 13°C 45°F / 7°C 67% 30.15 in
(1021 mb)
S 11.5 mph
(S 19 kph)
- 10SM
13:07
Mostly Cloudy
55°F / 13°C 48°F / 9°C 77% 30.15 in
(1021 mb)
S 13.8 mph
(S 22 kph)
- 10SM
12:53
Mostly Cloudy
54°F / 12°C 48°F / 9°C 82% 30.15 in
(1021 mb)
S 12.7 mph
(S 20 kph)
- 10SM
12:22
Mostly Cloudy
54°F / 12°C 48°F / 9°C 82% 30.15 in
(1021 mb)
S 10.4 mph
(S 17 kph)
- 10SM
11:53
Mostly Cloudy
54°F / 12°C 50°F / 10°C 88% 30.15 in
(1021 mb)
S 8.1 mph
(S 13 kph)
- 10SM
11:31
Mostly Cloudy
54°F / 12°C 50°F / 10°C 88% 30.12 in
(1020 mb)
S 13.8 mph
(S 22 kph)
- 10SM
10:53
Mostly Cloudy
54°F / 12°C 52°F / 11°C 94% 30.09 in
(1019 mb)
S 9.2 mph
(S 15 kph)
0.13 in
(3.30 mm)
10SM
10:17
Overcast
Light Rain
52°F / 11°C 48°F / 9°C 88% 30.12 in
(1020 mb)
SW 13.8 mph
(SW 22 kph)
0.11 in
(2.79 mm)
8SM
09:53
Overcast
Rain
52°F / 11°C 52°F / 11°C 100% 30.09 in
(1019 mb)
SW 8.1 mph
(SW 13 kph)
0.10 in
(2.54 mm)
3SM
08:53
Mostly Cloudy
54°F / 12°C 52°F / 11°C 94% 30.06 in
(1018 mb)
W 5.8 mph
(W 9 kph)
- 10SM
08:48
Mostly Cloudy
54°F / 12°C 52°F / 11°C 94% 30.06 in
(1018 mb)
W 5.8 mph
(W 9 kph)
- 10SM
07:53
Mostly Cloudy
52°F / 11°C 50°F / 10°C 94% 30.06 in
(1018 mb)
SSE 8.1 mph
(SSE 13 kph)
- 10SM
07:25
Partly Cloudy
Fog
52°F / 11°C 48°F / 9°C 88% 30.06 in
(1018 mb)
SSE 8.1 mph
(SSE 13 kph)
- 7SM
07:16
Overcast
Fog
52°F / 11°C 48°F / 9°C 88% 30.06 in
(1018 mb)
SE 10.4 mph
(SE 17 kph)
- 1/2SM
06:53
Overcast
Fog And Mist
52°F / 11°C 50°F / 10°C 94% 30.09 in
(1019 mb)
SE 10.4 mph
(SE 17 kph)
0.01 in
(0.25 mm)
5SM
06:30
Overcast
Light Rain
52°F / 11°C 50°F / 10°C 94% 30.09 in
(1019 mb)
SSE 6.9 mph
(SSE 11 kph)
0.01 in
(0.25 mm)
5SM
06:07
Overcast
Light Rain
52°F / 11°C 48°F / 9°C 88% 30.09 in
(1019 mb)
SSE 5.8 mph
(SSE 9 kph)
0.00 in
(0.00 mm)
6SM
05:53
Overcast
Light Rain
52°F / 11°C 48°F / 9°C 88% 30.09 in
(1019 mb)
SSE 5.8 mph
(SSE 9 kph)
0.02 in
(0.51 mm)
7SM
04:53
Overcast
50°F / 10°C 48°F / 9°C 94% 30.09 in
(1019 mb)
SE 10.4 mph
(SE 17 kph)
0.01 in
(0.25 mm)
10SM
04:29
Overcast
Light Rain
50°F / 10°C 48°F / 9°C 94% 30.09 in
(1019 mb)
SE 9.2 mph
(SE 15 kph)
0.01 in
(0.25 mm)
10SM
04:05
Overcast
52°F / 11°C 48°F / 9°C 88% 30.09 in
(1019 mb)
SE 13.8 mph
(SE 22 kph)
0.00 in
(0.00 mm)
9SM
03:53
Overcast
Light Rain
52°F / 11°C 48°F / 9°C 88% 30.09 in
(1019 mb)
SE 15 mph
(SE 24 kph)
0.06 in
(1.52 mm)
1SM
03:01
Overcast
Rain
52°F / 11°C 50°F / 10°C 94% 30.12 in
(1020 mb)
S 5.8 mph
(S 9 kph)
0.01 in
(0.25 mm)
6SM
02:53
Overcast
Rain
52°F / 11°C 50°F / 10°C 94% 30.12 in
(1020 mb)
SSE 6.9 mph
(SSE 11 kph)
0.09 in
(2.29 mm)
5SM
02:41
Overcast
Rain
52°F / 11°C 50°F / 10°C 94% 30.12 in
(1020 mb)
SE 6.9 mph
(SE 11 kph)
0.06 in
(1.52 mm)
7SM
02:04
Overcast
Light Rain
52°F / 11°C 48°F / 9°C 88% 30.09 in
(1019 mb)
SE 6.9 mph
(SE 11 kph)
0.01 in
(0.25 mm)
10SM
01:53
Overcast
Light Rain
50°F / 10°C 48°F / 9°C 94% 30.09 in
(1019 mb)
SE 8.1 mph
(SE 13 kph)
0.13 in
(3.30 mm)
10SM
01:41
Overcast
Light Rain
50°F / 10°C 48°F / 9°C 94% 30.09 in
(1019 mb)
SE 5.8 mph
(SE 9 kph)
0.13 in
(3.30 mm)
8SM
01:25
Overcast
Rain
50°F / 10°C 50°F / 10°C 100% 30.09 in
(1019 mb)
SW 3.5 mph
(SW 6 kph)
0.10 in
(2.54 mm)
1 1/2SM
01:17
Overcast
Rain
N/A 50°F / 10°C 100% 30.09 in
(1019 mb)
Calm 0.08 in
(2.03 mm)
1 1/2SM
01:07
Overcast
Rain
50°F / 10°C 48°F / 9°C 94% 30.09 in
(1019 mb)
Calm 0.05 in
(1.27 mm)
1 1/2SM
01:02
Overcast
Rain
50°F / 10°C 48°F / 9°C 94% 30.12 in
(1020 mb)
SSW 4.6 mph
(SSW 7 kph)
0.03 in
(0.76 mm)
2SM
00:53
Overcast
Heavy Rain
50°F / 10°C 48°F / 9°C 94% 30.09 in
(1019 mb)
SSW 9.2 mph
(SSW 15 kph)
0.28 in
(7.11 mm)
3SM
00:50
Overcast
Heavy Rain
50°F / 10°C 48°F / 9°C 94% 30.09 in
(1019 mb)
SSW 8.1 mph
(SSW 13 kph)
0.26 in
(6.60 mm)
4SM
Time Weather Temperature Dewpoint Humidity Pressure Winds Precip Visibility


Weather for websites

WeatherForYou.com, LLC is not responsible for any damages or problems caused by this service. Current weather conditions are obtained from the closest station including government and personal stations which may have varying degrees of accuracy. Weather forecasts are derived from the NOAA NDFD. Like all things, this site belongs to Jesus Christ... He just trusts us to maintain it. If you have any questions or comments email webmaster@weatherforyou.com

Copyright © 2016, WeatherForYou.com LLC. All rights reserved.